This is the latest recevied weather packets stored in our database for station/object KBTL-WX. If no packets are shown the sender has not sent any weather packets the latest 10 day(s).
| Time | Temp. | Humidity | Pressure | Rain* | Wind** | Luminosity | Snow |
|---|---|---|---|---|---|---|---|
| 1777515312 | 7.22° C | 88% | 981.4 hPa | 0 mm | - | - | - |
| 1777514435 | 7.22° C | 88% | 981.4 hPa | 0 mm | - | - | - |
| 1777513512 | 7.22° C | 89% | 980.7 hPa | 0 mm | - | - | - |
| 1777512625 | 7.22° C | 89% | 980.7 hPa | 0 mm | - | - | - |
| 1777511712 | 7.22° C | 89% | 980.7 hPa | 0 mm | - | - | - |
| 1777510833 | 7.22° C | 89% | 980.7 hPa | 0 mm | - | - | - |
| 1777509912 | 7.22° C | 86% | 980 hPa | 0 mm | - | - | - |
| 1777509025 | 7.78° C | 89% | 980.6 hPa | 0 mm | - | - | - |
| 1777508113 | 7.78° C | 89% | 980.6 hPa | 0 mm | - | - | - |
| 1777507231 | 7.78° C | 89% | 980.6 hPa | 0 mm | - | - | - |
| 1777506312 | 7.78° C | 91% | 979.7 hPa | 0.25 mm | - | - | - |
| 1777505426 | 8.33° C | 91% | 979.9 hPa | 1.52 mm | - | - | - |
| 1777504513 | 8.33° C | 91% | 979.9 hPa | 1.52 mm | - | - | - |
| 1777503634 | 8.33° C | 91% | 979.9 hPa | 1.52 mm | - | - | - |
| 1777502713 | 8.33° C | 91% | 979.3 hPa | 1.02 mm | - | - | - |
| 1777501825 | 8.33° C | 91% | 979.9 hPa | 1.02 mm | - | - | - |
| 1777500913 | 8.89° C | 91% | 979.9 hPa | 1.02 mm | - | - | - |
| 1777500036 | 9.44° C | 91% | 979.9 hPa | 1.02 mm | - | - | - |
| 1777499112 | 8.89° C | 91% | 979.2 hPa | 1.52 mm | - | - | - |
| 1777498229 | 9.44° C | 91% | 978.9 hPa | 1.52 mm | - | - | - |
| 1777497313 | 8.89° C | 91% | 979 hPa | 1.02 mm | - | - | - |
| 1777496435 | 9.44° C | 91% | 979 hPa | 1.02 mm | - | - | - |
| 1777495513 | 10° C | 87% | 979.6 hPa | 0.76 mm | - | - | - |
| 1777494629 | 9.44° C | 87% | 978.6 hPa | 0 mm | - | - | - |
| 1777493713 | 10° C | 87% | 978.6 hPa | 0 mm | - | - | - |
* Rain latest hour (hover to see other rain measurements)
** Current wind speed in m/s (hover to see current wind gust speed)